Home   Weather   Hialeah   Past weeks

Flag for USA Past Weather in Hialeah, Florida, USA — Yesterday and Last 2 Weeks

Now
83 °F

Sunny.


Feels Like: 89 °F
Forecast: 77 / 87 °F
Wind: 8 mph from East

Location: Opa Locka Airport

Current Time: Sep 25, 2016 at 3:21:03 PM

Latest Report: Sep 25, 2016 at 2:53 PM


Visibility: 10 mi

Pressure: 29.98 "Hg

Humidity: 74%

Dew Point: 74 °F

Location of HialeahLocation

Past Weather in Hialeah — Graph

°F

Hialeah Temperature Yesterday

Maximum temperature yesterday: 87 °F (at 10:53 AM)
Minimum temperature yesterday: 76 °F (at 11:53 PM)
Average temperature yesterday: 80 °F

High & Low Weather Summary for the Past Weeks

 TemperatureHumidityPressure
High93 °F (Sep 19, 1:53 PM)100% (Sep 16, 5:53 AM)30.10 "Hg (Sep 16, 5:53 AM)
Low74 °F (Sep 25, 1:53 AM)47% (Sep 18, 2:53 PM)29.91 "Hg (Sep 12, 6:53 PM)
Average82 °F78%30.00 "Hg
* Reported Sep 10 1:53 PM — Sep 25 1:53 PM, Hialeah, Weather by CustomWeather, © 2016

Note: Actual official high and low records may vary slightly from our data, if they occured in-between our weather recording intervals... More about our weather records

Advertising

Hialeah Weather History for the Previous 24 Hours

Scroll right to see more
 ConditionsComfort  
Time TempWeatherWind HumidityBarometerVisibility
1:53 PM
Sun, Sep 25
84 °FCloudy.13 mph72%30.01 "Hg10 mi
1:04 PM87 °FScattered clouds.10 mph67%30.02 "Hg10 mi
12:53 PM86 °FThundershowers. Passing clouds.10 mph67%30.04 "Hg10 mi
11:53 AM86 °FSunny.14 mph61%30.05 "Hg10 mi
10:53 AM84 °FPartly sunny.10 mph72%30.05 "Hg10 mi
9:53 AM84 °FSunny.5 mph74%30.03 "Hg10 mi
8:53 AM79 °FSunny.3 mph84%30.04 "Hg10 mi
7:53 AM75 °FSunny.No wind94%30.01 "Hg10 mi
6:53 AM75 °FClear.5 mph96%30.00 "Hg10 mi
5:53 AM75 °FClear.5 mph96%29.98 "Hg10 mi
4:53 AM76 °FClear.6 mph94%29.98 "Hg10 mi
3:53 AM75 °FClear.No wind94%29.98 "Hg10 mi
2:53 AM75 °FClear.6 mph94%29.99 "Hg10 mi
1:53 AM74 °FPassing clouds.3 mph94%30.00 "Hg10 mi
12:53 AM75 °FClear.No wind85%30.01 "Hg10 mi
11:53 PM
Sat, Sep 24
76 °FClear.7 mph88%30.02 "Hg10 mi
10:53 PM78 °FClear.No wind93%30.03 "Hg10 mi
9:53 PM79 °FClear.No wind94%30.02 "Hg10 mi
8:53 PM80 °FPassing clouds.7 mph94%30.03 "Hg10 mi
7:53 PM80 °FLight rain. Passing clouds.No wind94%30.00 "Hg10 mi
6:53 PM80 °FSunny.3 mph90%30.00 "Hg10 mi
5:53 PM80 °FLight rain. Scattered clouds.No wind90%30.00 "Hg10 mi
4:53 PM80 °FLight rain. Partly sunny.5 mph87%30.01 "HgN/A
3:53 PM80 °FPartly sunny.3 mph87%29.99 "Hg10 mi
Weather by CustomWeather, © 2016

See weather overviewHow to use our weather pages